Weather History for Mobile, AL

Change the Weather History Date:

Sunday, April 27, 2014

  Actual Average Record
Temperature  
Mean Temperature 77 °F 69 °F  
Max Temperature 83 °F 80 °F 89 °F (1989)
Min Temperature 70 °F 58 °F 42 °F (1992)
Degree Days  
Heating Degree Days 0 1  
Month to date heating degree days 68 59  
Since 1 July heating degree days 2047 1690  
Cooling Degree Days 12 5  
Month to date cooling degree days 79 87  
Year to date cooling degree days 92 142  
Growing Degree Days 26 (Base 50)    
Moisture  
Dew Point 70 °F    
Average Humidity 79    
Maximum Humidity 100    
Minimum Humidity 58    
Precipitation  
Precipitation T in 0.15 in 3.50 in (1964)
Month to date precipitation 6.26 4.34  
Year to date precipitation 19.88 21.25  
Sea Level Pressure  
Sea Level Pressure 29.90 in    
Wind  
Wind Speed 14 mph (SSE)    
Max Wind Speed 25 mph    
Max Gust Speed 32 mph    
Visibility 8 miles    
Events      
T = Trace of Precipitation, MM = Missing Value Source: NWS Daily Summary

Daily Weather History Graph

Daily Weather History Graph

Search for Another Location

Airport:

Trip Planner

Search our weather history database for the weather conditions in past years. The results will help you decide how hot, cold, wet, or windy it might be!

Date:

Astronomy

Apr. 27, 2014 Rise Set
Actual Time 6:12 AM CDT 7:28 PM CDT
Civil Twilight 5:47 AM CDT 7:54 PM CDT
Nautical Twilight 5:17 AM CDT 8:24 PM CDT
Astronomical Twilight 4:46 AM CDT 8:55 PM CDT
Moon 5:05 AM CDT (4/27) 6:08 PM CDT (4/27)
Length of Visible Light 14h 06m
Length of Day
13h 15m
Waning Crescent, 3% of the Moon is Illuminated
Apr 27
Waning Crescent
Apr 29
New
May 6
First Quarter
May 14
Full
May 21
Last Quarter

Hourly Weather History & Observations

Time (CDT) Temp. Heat Index Dew Point Humidity Pressure Visibility Wind Dir Wind Speed Gust Speed Precip Events Conditions
12:11 AM 71.1 °F - 70.0 °F 96% 29.96 in 9.0 mi SSE 5.8 mph - N/A   Mostly Cloudy
12:27 AM 70.0 °F - 70.0 °F 100% 29.96 in 9.0 mi SSE 6.9 mph - N/A   Scattered Clouds
12:56 AM 70.0 °F - 70.0 °F 100% 29.95 in 7.0 mi SSE 5.8 mph - N/A   Clear
1:17 AM 70.0 °F - 70.0 °F 100% 29.94 in 7.0 mi SE 5.8 mph - N/A   Mostly Cloudy
1:46 AM 70.0 °F - 70.0 °F 100% 29.94 in 6.0 mi SSE 4.6 mph - N/A   Mostly Cloudy
1:56 AM 70.0 °F - 70.0 °F 100% 29.93 in 6.0 mi SE 5.8 mph - N/A   Mostly Cloudy
2:56 AM 70.0 °F - 70.0 °F 100% 29.91 in 5.0 mi SSE 5.8 mph - N/A   Overcast
3:56 AM 70.0 °F - 70.0 °F 100% 29.91 in 5.0 mi SE 6.9 mph - N/A   Overcast
4:24 AM 70.0 °F - 70.0 °F 100% 29.91 in 2.0 mi SSE 5.8 mph - N/A   Overcast
4:40 AM 70.0 °F - 70.0 °F 100% 29.91 in 4.0 mi SE 6.9 mph - N/A   Overcast
4:56 AM 70.0 °F - 70.0 °F 100% 29.90 in 5.0 mi SSE 9.2 mph - N/A   Overcast
5:56 AM 71.1 °F - 71.1 °F 100% 29.91 in 4.0 mi SSE 6.9 mph - N/A   Overcast
6:56 AM 72.0 °F - 71.1 °F 97% 29.93 in 5.0 mi South 8.1 mph - N/A   Mostly Cloudy
7:56 AM 72.0 °F - 72.0 °F 100% 29.93 in 6.0 mi SSE 8.1 mph - 0.00 in   Overcast
8:56 AM 73.4 °F - 71.6 °F 94% 29.93 in 7.0 mi SSE 12.7 mph - N/A   Mostly Cloudy
9:03 AM 73.9 °F - 72.0 °F 93% 29.93 in 7.0 mi SSE 11.5 mph - N/A   Mostly Cloudy
9:15 AM 75.0 °F - 72.0 °F 90% 29.94 in 7.0 mi SSE 13.8 mph - N/A   Mostly Cloudy
9:27 AM 75.0 °F - 72.0 °F 90% 29.94 in 8.0 mi South 12.7 mph - N/A   Mostly Cloudy
9:56 AM 77.0 °F - 71.1 °F 82% 29.93 in 10.0 mi South 19.6 mph 24.2 mph N/A   Mostly Cloudy
10:30 AM 78.1 °F - 69.1 °F 74% 29.94 in 10.0 mi South 17.3 mph 26.5 mph N/A   Mostly Cloudy
10:56 AM 80.1 °F 82.7 °F 68.0 °F 67% 29.94 in 10.0 mi South 19.6 mph 24.2 mph N/A   Mostly Cloudy
11:56 AM 81.0 °F 83.3 °F 66.9 °F 62% 29.93 in 10.0 mi South 19.6 mph 24.2 mph N/A   Mostly Cloudy
12:56 PM 82.0 °F 84.5 °F 66.9 °F 60% 29.88 in 10.0 mi SSE 18.4 mph 28.8 mph N/A   Mostly Cloudy
1:56 PM 82.0 °F 84.9 °F 68.0 °F 62% 29.88 in 10.0 mi SSE 23.0 mph 32.2 mph N/A   Mostly Cloudy
2:56 PM 78.8 °F - 68.0 °F 69% 29.88 in 10.0 mi SSE 20.7 mph 26.5 mph N/A   Overcast
3:41 PM 82.0 °F 85.9 °F 70.0 °F 67% 29.86 in 8.0 mi SSE 15.0 mph 21.9 mph N/A   Mostly Cloudy
3:48 PM 81.0 °F 84.4 °F 70.0 °F 69% 29.85 in 8.0 mi SSE 13.8 mph 21.9 mph N/A   Mostly Cloudy
3:56 PM 81.0 °F 84.4 °F 70.0 °F 69% 29.84 in 8.0 mi SE 18.4 mph 24.2 mph N/A   Mostly Cloudy
4:56 PM 79.0 °F - 70.0 °F 74% 29.83 in 10.0 mi SE 16.1 mph 24.2 mph N/A   Overcast
5:56 PM 77.0 °F - 70.0 °F 79% 29.85 in 10.0 mi SSE 16.1 mph - N/A   Overcast
6:56 PM 75.0 °F - 71.1 °F 87% 29.85 in 8.0 mi SE 13.8 mph - N/A   Overcast
7:56 PM 73.9 °F - 71.1 °F 91% 29.84 in 10.0 mi SSE 13.8 mph - N/A   Overcast
8:56 PM 73.9 °F - 71.1 °F 91% 29.84 in 10.0 mi SSE 11.5 mph - N/A   Overcast
9:42 PM 75.0 °F - 71.1 °F 87% 29.85 in 10.0 mi SSE 12.7 mph - N/A   Overcast
9:56 PM 75.0 °F - 71.1 °F 87% 29.84 in 10.0 mi SSE 13.8 mph - N/A   Overcast
10:56 PM 75.0 °F - 72.0 °F 90% 29.84 in 10.0 mi SSE 15.0 mph - N/A   Overcast
11:56 PM 75.0 °F - 72.0 °F 90% 29.83 in 10.0 mi SSE 15.0 mph - N/A   Mostly Cloudy